Weather Roundup
Issued by NWS

Home | Current Version | Previous Version | Text Only | Print | Product List | Glossary On
Versions: 1 2 3 4 5 6 7 8 9 10 11 12 13 14 15 16 17 18 19 20 21 22 23 24 25 26 27 28 29 30 31 32 33 34 35 36 37 38 39 40 41 42 43 44 45 46 47 48 49 50
000
NZUS93 KARX 260410
HRRWXR

CURRENT HOURLY OBSERVATIONS ACROSS
MUCH OF THE UPPER MISSISSIPPI VALLEY
NATIONAL WEATHER SERVICE LA CROSSE WI
1100 PM CDT MON MAY 25 2015


...SOUTHEAST MINNESOTA...


CITY           SKY/WX    TMP DP  RH WIND       PRES   REMARKS
ROCHESTER      MOCLDY    63  58  83 S9        29.80S
ROCHESTER/MAYO FAIR      65  61  86 CALM      29.80S
WINONA         MOCLDY    70  61  73 CALM      29.79S
AUSTIN         CLOUDY    64  57  77 S5        29.80S
ALBERT LEA     MOCLDY    66  57  72 CALM      29.80S
DODGE CENTER   PTCLDY    63  59  88 CALM      29.80F
PRESTON        CLOUDY    66  60  80 S7        29.82S
OWATONNA       PTCLDY    61  57  88 CALM      29.80S
FARIBAULT      PTCLDY    61  59  94 CALM      29.79S
$$

...ELSEWHERE IN MINNESOTA...


CITY           SKY/WX    TMP DP  RH WIND       PRES   REMARKS
MINNEAPOLIS    MOCLDY    66  58  75 S7        29.78R
INTNL FALLS    CLOUDY    52  51  97 CALM      29.81S
DULUTH         DRIZZLE   52  49  89 NE5       29.78R
RED WING       CLEAR     61  57  88 CALM      29.77S
REDWOOD FALLS  PTCLDY    58  55  90 W9        29.78R
MANKATO        PTCLDY    64  57  77 CALM      29.79S
WORTHINGTON    MOCLDY    61  55  82 NE3       29.82R
FAIRMONT       CLOUDY    63  55  77 N5        29.80R
$$

...SOUTHWEST WISCONSIN...


CITY           SKY/WX    TMP DP  RH WIND       PRES   REMARKS
LA CROSSE      PTCLDY    70  59  68 S12       29.79S
PRAIRIE DU CHI MOCLDY    71  61  69 S10       29.86R
BOSCOBEL       PTCLDY    70  62  76 VRB3      29.86R
LONE ROCK      PTCLDY    69  61  75 S5        29.88R
PLATTEVILLE    PTCLDY    68  63  83 S10       29.91R
FORT MC COY    PTCLDY    64  61  93 S3        29.82S
CAMP DOUGLAS   PTCLDY    67  67 100 S8        29.83S
VIROQUA        FAIR      68  62  79 S12       29.85F
WIS DELLS      MOCLDY    68  59  72 S10       29.87S
$$

...ELSEWHERE IN WISCONSIN...


CITY           SKY/WX    TMP DP  RH WIND       PRES   REMARKS
MILWAUKEE      PTCLDY    71  60  68 SW12      29.92R
MADISON        PTCLDY    70  59  68 S8        29.89R
GREEN BAY      PTCLDY    64  61  90 S5        29.85R
EAU CLAIRE     PTCLDY    62  61  96 CALM      29.78R FOG
BLACK RVR FLS  FAIR      62  62 100 SE3       29.80R FOG
MEDFORD        CLOUDY    59  58  98 CALM      29.81S
WAUSAU         MOCLDY    58  57  97 SE5       29.82R
WIS RAPIDS     PTCLDY    62  59  90 S6        29.85R
MARSHFIELD     PTCLDY    61  58  90 S8        29.83R
RICE LAKE      CLEAR     61  57  88 S5        29.79R
$$

...NORTHEAST IOWA...


CITY           SKY/WX    TMP DP  RH WIND       PRES   REMARKS
DECORAH        DRIZZLE   66  64  94 S7G15     29.84R
MASON CITY     CLOUDY    68  56  65 S13       29.81S
CHARLES CITY   CLOUDY    68  68 100 S24G33    29.82S
OELWEIN        MOCLDY    68  64  88 S12       29.86R
$$

...ELSEWHERE IN IOWA...


CITY           SKY/WX    TMP DP  RH WIND       PRES   REMARKS
DES MOINES     CLOUDY    64  58  80 SE5       29.85F
IOWA CITY      PTCLDY    71  64  78 SE7       29.88F
FORT DODGE     CLOUDY    61  54  77 S5        29.84S
$$

...NORTHERN ILLINOIS...


CITY           SKY/WX    TMP DP  RH WIND       PRES   REMARKS
CHICAGO-OHARE  PTCLDY    71  58  63 S5        29.95R
CHICAGO-MIDWAY PTCLDY    75  60  59 S14       29.97R
MOLINE         CLEAR     67  61  81 SE3       29.89F
ROCKFORD       PTCLDY    73  58  59 SW8       29.93S
PEORIA         CLEAR     75  65  70 S14G22    29.94F
$$

NOTE: "FAIR" INDICATES FEW OR NO CLOUDS BELOW 12,000 FEET WITH NO
SIGNIFICANT WEATHER AND/OR OBSTRUCTIONS TO VISIBILITY. WIND
SPEEDS ARE IN MILES-PER-HOUR.



USA.gov is the U.S. government's official web portal to all federal, state and local government web resources and services.